TimeEST,TemperatureF,Dew PointF,Humidity,Sea Level PressureIn,VisibilityMPH,Wind Direction,Wind SpeedMPH,Gust SpeedMPH,PrecipitationIn,Events,Conditions,WindDirDegrees,DateUTC
12:55 AM,14.2,-0.4,52,30.17,10.0,WNW,10.4,-,N/A,,Clear,300,2013-02-10 05:55:00
1:55 AM,13.8,-1.3,51,30.20,10.0,WNW,10.4,-,N/A,,Clear,290,2013-02-10 06:55:00
2:55 AM,13.1,-1.5,52,30.21,10.0,West,5.8,-,N/A,,Clear,280,2013-02-10 07:55:00
3:55 AM,11.7,-2.7,53,30.23,10.0,WNW,5.8,-,N/A,,Clear,290,2013-02-10 08:55:00
4:55 AM,9.9,-1.8,59,30.25,10.0,West,4.6,-,N/A,,Clear,280,2013-02-10 09:55:00
5:55 AM,10.4,-4.0,52,30.28,10.0,West,6.9,-,N/A,,Partly Cloudy,270,2013-02-10 10:55:00
6:55 AM,7.3,-4.4,59,30.31,10.0,West,3.5,-,N/A,,Clear,280,2013-02-10 11:55:00
7:55 AM,11.7,-3.5,51,30.34,10.0,West,5.8,-,N/A,,Clear,280,2013-02-10 12:55:00
8:55 AM,16.5,-4.2,40,30.36,10.0,WNW,4.6,-,N/A,,Clear,290,2013-02-10 13:55:00
9:55 AM,21.0,-2.4,36,30.37,10.0,West,4.6,-,N/A,,Clear,280,2013-02-10 14:55:00
10:55 AM,25.9,-0.9,31,30.37,10.0,West,5.8,-,N/A,,Clear,280,2013-02-10 15:55:00
11:55 AM,29.8,-1.3,26,30.36,10.0,West,9.2,-,N/A,,Scattered Clouds,270,2013-02-10 16:55:00
12:55 PM,32.5,1.2,26,30.35,10.0,WSW,8.1,-,N/A,,Mostly Cloudy,250,2013-02-10 17:55:00
1:55 PM,33.4,3.6,28,30.32,10.0,NW,4.6,-,N/A,,Scattered Clouds,320,2013-02-10 18:55:00
2:55 PM,36.1,0.7,22,30.32,10.0,West,5.8,-,N/A,,Scattered Clouds,260,2013-02-10 19:55:00
3:55 PM,35.4,1.6,24,30.34,10.0,WSW,5.8,-,N/A,,Partly Cloudy,250,2013-02-10 20:55:00
4:55 PM,34.0,-0.8,23,30.34,10.0,West,3.5,-,N/A,,Partly Cloudy,280,2013-02-10 21:55:00
5:55 PM,26.8,3.4,37,30.35,10.0,Calm,Calm,-,N/A,,Partly Cloudy,0,2013-02-10 22:55:00
6:55 PM,26.2,-0.4,32,30.35,10.0,Calm,Calm,-,N/A,,Partly Cloudy,0,2013-02-10 23:55:00
7:55 PM,24.8,0.7,35,30.35,10.0,SW,3.5,-,N/A,,Clear,230,2013-02-11 00:55:00
8:55 PM,21.2,4.5,49,30.35,10.0,Calm,Calm,-,N/A,,Clear,0,2013-02-11 01:55:00
9:55 PM,18.1,2.7,51,30.34,10.0,Calm,Calm,-,N/A,,Clear,0,2013-02-11 02:55:00
10:55 PM,19.4,7.9,61,30.35,10.0,Calm,Calm,-,N/A,,Clear,0,2013-02-11 03:55:00
11:55 PM,16.9,9.1,72,30.35,10.0,Calm,Calm,-,N/A,,Clear,0,2013-02-11 04:55:00